User: anonymous   Login
Location: Unspecified
(0.0000°N, 0.0000°E)
Time: 12:18:49
(UTC+00:00)
Language:

USA 237 - Orbit

View from above orbital plane
View from above orbital plane
View from above satellite
View from above satellite

Ground track
Ground track

The orbit data is extracted from the following two-line orbital elements,

1 38528U 12034A   17107.25708763 0.00000000  00000-0  00000-0 0    03
2 38528   0.9509 350.9181 0043506 354.6738   5.2805  1.00270000    02
Epoch (UTC): 17 April 2017 06:10:12
Eccentricity: 0.0043506
inclination: 0.9509°
perigee height: 35603 km
apogee height: 35970 km
right ascension of ascending node: 350.9181°
argument of perigee: 354.6738°
revolutions per day: 1.00270000
mean anomaly at epoch: 5.2805°
orbit number at epoch: 0

The dashed part of the orbit path shows where the satellite is in the earth's shadow,  

DLR